Weather History for Wenatchee, WA

Change the Weather History Date:

Monday, August 18, 2014

  Actual Average Record
Temperature  
Mean Temperature 72 °F 66 °F  
Max Temperature 90 °F 83 °F 104 °F (1967)
Min Temperature 53 °F 50 °F 44 °F (2007)
Degree Days  
Heating Degree Days 0 2  
Month to date heating degree days 0 21  
Since 1 June heating degree days 203 260  
Since 1 July heating degree days 12 73  
Cooling Degree Days 7 3  
Month to date cooling degree days 127 75  
Year to date cooling degree days 371 204  
Since 1 June cooling degree days 371 199  
Growing Degree Days 32 (Base 50)    
Moisture  
Dew Point 54 °F    
Average Humidity 0    
Maximum Humidity 0    
Minimum Humidity 0    
Precipitation  
Precipitation 0.00 in 0.02 in 1.51 in (1975)
Month to date precipitation 0.24 0.25  
Year to date precipitation 11.63 10.20  
Snow  
Snow 0.00 in 0.00 in - ()
Month to date snowfall 0.0 0.0  
Since 1 June snowfall 0.0 0.0  
Since 1 July snowfall 0.0 0.0  
Snow Depth 0.00 in    
Sea Level Pressure  
Sea Level Pressure 29.86 in    
Wind  
Wind Speed 8 mph (West)    
Max Wind Speed 12 mph    
Max Gust Speed 0 mph    
Visibility 10 miles    
Events      
T = Trace of Precipitation, MM = Missing Value Source: NWS Daily Summary

Daily Weather History Graph

Daily Weather History Graph

Search for Another Location

Airport:

Trip Planner

Search our weather history database for the weather conditions in past years. The results will help you decide how hot, cold, wet, or windy it might be!

Date:

Astronomy

Aug. 18, 2014 Rise Set
Actual Time 6:01 AM PDT 8:07 PM PDT
Civil Twilight 5:27 AM PDT 8:40 PM PDT
Nautical Twilight 4:46 AM PDT 9:21 PM PDT
Astronomical Twilight 4:00 AM PDT 10:07 PM PDT
Moon 12:06 AM PDT 3:21 PM PDT
Length of Visible Light 15h 12m
Length of Day
14h 05m
Last Quarter, 37% of the Moon is Illuminated
Aug 18
Last Quarter
Aug 25
New
Sep 2
First Quarter
Sep 8
Full
Sep 15
Last Quarter

Hourly Weather History & Observations

Time (PDT) Temp. Heat Index Dew Point Humidity Pressure Visibility Wind Dir Wind Speed Gust Speed Precip Events Conditions
12:55 AM 75.0 °F - 57.9 °F 55% 29.96 in 10.0 mi West 6.9 mph - N/A   Clear
1:55 AM 73.9 °F - 57.9 °F 57% 29.96 in 10.0 mi NW 9.2 mph - N/A   Clear
2:55 AM 73.0 °F - 57.9 °F 59% 29.96 in 10.0 mi NW 10.4 mph - N/A   Clear
3:55 AM 69.1 °F - 57.9 °F 68% 29.95 in 10.0 mi West 5.8 mph - N/A   Clear
4:55 AM 70.0 °F - 57.0 °F 63% 29.95 in 10.0 mi WNW 11.5 mph - N/A   Clear
5:55 AM 70.0 °F - 57.0 °F 63% 29.95 in 10.0 mi NW 9.2 mph - N/A   Clear
6:55 AM 68.0 °F - 57.0 °F 68% 29.96 in 10.0 mi WNW 10.4 mph - N/A   Clear
7:55 AM 69.1 °F - 57.9 °F 68% 29.96 in 10.0 mi West 11.5 mph - N/A   Clear
8:55 AM 75.0 °F - 55.9 °F 51% 29.95 in 10.0 mi WNW 11.5 mph - N/A   Clear
9:55 AM 77.0 °F - 55.9 °F 48% 29.93 in 10.0 mi West 11.5 mph - N/A   Clear
10:55 AM 81.0 °F 80.8 °F 55.9 °F 42% 29.91 in 10.0 mi WSW 5.8 mph - N/A   Clear
11:55 AM 87.1 °F 85.3 °F 55.0 °F 33% 29.89 in 10.0 mi Calm Calm - N/A   Clear
12:55 PM 90.0 °F 87.5 °F 53.1 °F 28% 29.86 in 10.0 mi SSW 5.8 mph - N/A   Clear
1:55 PM 91.9 °F - 50.0 °F 24% 29.83 in 10.0 mi Variable 4.6 mph - N/A   Clear
2:55 PM 93.9 °F - 50.0 °F 22% 29.81 in 10.0 mi East 4.6 mph - N/A   Clear
3:55 PM 95.0 °F - 51.1 °F 22% 29.78 in 10.0 mi ESE 5.8 mph - N/A   Clear
4:55 PM 93.9 °F - 51.1 °F 23% 29.75 in 10.0 mi South 6.9 mph - N/A   Clear
5:55 PM 93.0 °F - 50.0 °F 23% 29.73 in 10.0 mi SSE 5.8 mph - N/A   Clear
6:55 PM 91.9 °F - 50.0 °F 24% 29.72 in 10.0 mi South 4.6 mph - N/A   Clear
7:55 PM 84.0 °F 83.0 °F 55.9 °F 38% 29.72 in 10.0 mi NNW 4.6 mph - N/A   Clear
9:55 PM 84.0 °F - 41.0 °F 22% 29.73 in 10.0 mi WNW 10.4 mph - N/A   Clear
10:55 PM 80.1 °F - 46.0 °F 30% 29.72 in 10.0 mi NW 5.8 mph - N/A   Clear
11:55 PM 78.1 °F - 52.0 °F 40% 29.71 in 10.0 mi NW 8.1 mph - N/A   Clear